Location: Unspecified
(0.0000°N, 0.0000°E)
Time: 13:35:02
(UTC+01:00)

Cosmos 2219 - Visible Passes

Search period start: 24 February 2017 00:00
Search period end: 06 March 2017 00:00
Orbit: 833 x 861 km, 71.1° (Epoch: 24 February)

Date Brightness Start Highest point End Pass type
(mag) Time Alt. Az. Time Alt. Az. Time Alt. Az.
24 Feb 6.1 06:23:48 10° NE 06:26:43 14° ENE 06:29:38 10° ESE visible
25 Feb 6.1 06:10:30 10° NE 06:13:15 14° ENE 06:16:01 10° ESE visible
26 Feb 6.1 05:57:13 10° NE 05:59:48 13° ENE 06:02:22 10° ESE visible
26 Feb 6.5 20:28:10 10° W 20:28:55 10° WNW 20:29:39 10° WNW visible
27 Feb 6.1 05:43:56 10° NE 05:46:20 13° ENE 05:48:44 10° E visible
27 Feb 6.4 20:14:12 10° W 20:15:27 11° WNW 20:16:43 10° WNW visible
28 Feb 6.1 05:30:40 10° NE 05:32:53 12° ENE 05:35:05 10° E visible
28 Feb 6.4 20:00:23 10° W 20:02:00 11° WNW 20:03:36 10° WNW visible
01 Mar 6.1 05:17:26 10° NE 05:19:25 12° ENE 05:21:23 10° E visible
01 Mar 6.4 19:46:39 10° W 19:48:32 12° WNW 19:50:27 10° NW visible
02 Mar 6.1 05:04:15 10° NE 05:05:57 11° ENE 05:07:40 10° E visible
02 Mar 3.5 06:44:30 10° NNW 06:49:50 45° WSW 06:55:10 10° S visible
02 Mar 6.4 19:32:57 10° W 19:35:05 12° WNW 19:37:13 10° NW visible
03 Mar 6.1 04:51:06 10° ENE 04:52:29 11° ENE 04:53:54 10° E visible
03 Mar 3.4 06:31:01 10° NNW 06:36:22 47° WSW 06:41:44 10° S visible
04 Mar 6.1 04:38:03 10° ENE 04:39:02 10° ENE 04:40:01 10° E visible
04 Mar 3.4 06:17:32 10° NNW 06:22:55 49° WSW 06:28:18 10° S visible
05 Mar 3.3 06:04:04 10° NNW 06:09:27 50° WSW 06:14:52 10° S visible
